Startpagina
METAR-TAF:

METAR-TAF

Vliegvelden :

Pontoise, Frankrijk

Aérodrome de Pontoise-Cormeilles-en-Vexin

breedte: 49-05-48N, lengte: 002-02-27E, hoogte: 99 m

Actueel weer

Dit bericht is 30 minuten geleden gemaakt, om 15:00 UTC
Wind 7 kt uit het zuiden
Temperatuur 20°C
Vochtigheid 94%
Druk 1003 hPa
Zicht 10 km of meer
lichte regen

METAR: LFPT 271500Z AUTO 17007KT 9999 -RA FEW032/// SCT040/// BKN048/// ///CB 20/19 Q1003

Tijdstip: 17:30 (15:30 UTC)


TAF: ontbreekt

Waarnemingen en weersverwachtingen van meer dan 4000 vliegvelden (METAR en TAF).

De beschikbare stations zijn de gele en rode punten op de kaart.

Ga met uw muis naar het station om de naam te zien.

Klik dan om waarnemingen en weersverwachtingen te zien.

kaart wijzigen: klik op de groene knoppen met een zwart kruis om in te zoomen, op de groene knop met een streepje om uit te zoomen of op de groene pijlen voor aangrenzende kaarten.


METAR-TAF: